[[{"header":{"parameterUnit":"m.s-1","parameterCategory":1,"la1":30.2991,"la2":30.254,"lo1":-89.0895,"lo2":-89.0444,"dy":0.0017,"dx":0.0017,"nx":28,"ny":28,"refTime":"2024-02-16T03:00:00:Z","depth":0,"parameterNumber":2,"parameterNumberName":"U-component_of_WINDS"},"data":[0,0,0,0,0,0,0,0,0,0,0,0,0,0,0,0,0,0,0,0,0,0,0,0,0,0,0,0,0,0,0,0,0,0,0,0,0,0,0,0,0,0,0,0,0,0,0,0,0,0,0,0,0,0,0,0,0,0,-0.9407,-0.9407,0,-0.9388,-0.9388,-0.9388,-0.9358,-0.9357,-0.9357,-0.9356,-0.9336,-0.9336,-0.9336,0,0,0,0,0,0,0,0,0,0,0,0,0,-0.9419,-0.9419,-0.9407,-0.9407,-0.9407,-0.9388,-0.9388,-0.9388,-0.9358,-0.9357,-0.9356,-0.9356,-0.9336,-0.9336,-0.9336,0,0,0,0,0,0,0,0,0,0,0,0,0,-0.9408,-0.9419,-0.9408,-0.939,-0.9388,-0.9388,-0.9388,-0.9388,-0.9358,-0.9357,-0.9356,-0.9356,-0.9336,-0.9336,-0.9336,-0.9352,0,0,-0.9336,-0.9336,0,0,0,0,0,0,0,0,-0.9409,-0.9408,-0.9393,-0.9391,-0.9389,-0.9375,-0.9385,-0.9376,-0.9358,-0.9369,-0.9356,-0.9355,-0.9349,-0.9348,-0.9346,-0.9351,-0.935,-0.9336,-0.9336,-0.9336,-0.9336,0,0,0,0,0,0,0,-0.941,-0.9409,-0.94,-0.9392,-0.939,-0.9383,-0.9381,-0.9383,-0.9364,-0.9368,-0.9366,-0.9364,-0.9348,-0.9347,-0.9346,-0.935,-0.9336,-0.9336,-0.9336,-0.9336,-0.9369,-0.937,0,0,0,0,0,0,-0.9413,-0.9409,-0.94,-0.9399,-0.9397,-0.9384,-0.9381,-0.938,-0.9364,-0.9361,-0.9365,-0.9363,-0.9347,-0.9346,-0.9345,-0.9364,-0.9336,-0.9336,-0.9336,-0.9368,-0.9369,-0.937,0,0,0,0,0,0,-0.9414,-0.9413,-0.9401,-0.9404,-0.9402,-0.9384,-0.9384,-0.938,-0.9378,-0.9362,-0.9358,-0.9367,-0.9346,-0.9345,-0.9351,-0.9363,-0.9336,-0.9336,-0.9367,-0.9368,-0.9369,-0.9401,0,0,0,0,0,0,-0.9414,-0.9413,-0.9418,-0.9404,-0.9402,-0.9407,-0.9384,-0.938,-0.9378,-0.9375,-0.9362,-0.9359,-0.9346,-0.9351,-0.9351,-0.9362,-0.9336,-0.9366,-0.9367,-0.9369,-0.9399,-0.9404,-0.9407,0,0,0,0,0,-0.9414,-0.9428,-0.9419,-0.9418,-0.9408,-0.9408,-0.9407,-0.9391,-0.9379,-0.9385,-0.9375,-0.936,-0.9362,-0.9352,-0.9351,-0.9363,-0.9365,-0.9367,-0.9369,-0.9397,-0.9403,-0.9407,0,0,0,0,0,0,-0.9443,-0.9425,-0.9415,-0.9424,-0.9418,-0.9403,-0.941,-0.9397,-0.9394,-0.9391,-0.9372,-0.9369,-0.9378,-0.9371,-0.936,-0.9379,-0.9361,-0.9363,-0.9383,-0.9388,-0.9392,-0.9393,-0.9336,0,0,0,0,0,-0.9451,-0.9452,-0.9436,-0.9446,-0.9443,-0.9427,-0.9426,-0.9415,-0.9408,-0.9405,-0.9394,-0.9388,-0.9387,-0.9387,-0.9385,-0.9398,-0.9395,-0.9406,-0.941,-0.9414,-0.9416,-0.9424,-0.9428,-0.9377,-0.9377,-0.9377,0,0,-0.9466,-0.9456,-0.9458,-0.9451,-0.9445,-0.9447,-0.9425,-0.9428,-0.9429,-0.9405,-0.941,-0.9403,-0.9394,-0.9404,-0.9408,-0.9399,-0.9429,-0.9416,-0.9419,-0.9419,-0.9426,-0.9431,-0.9435,-0.9378,-0.9378,-0.9377,0,0,-0.9495,-0.9487,-0.9495,-0.949,-0.9481,-0.947,-0.9473,-0.946,-0.9454,-0.9459,-0.9442,-0.9444,-0.9442,-0.9438,-0.9435,-0.9465,-0.9451,-0.9465,-0.9486,-0.9494,-0.9498,-0.9502,-0.9514,-0.9518,-0.9467,-0.9467,-0.9467,0,-0.9515,-0.9517,-0.95,-0.9505,-0.9503,-0.9482,-0.949,-0.9486,-0.9477,-0.9476,-0.9466,-0.9466,-0.9458,-0.9468,-0.9475,-0.9473,-0.9476,-0.9466,-0.9499,-0.9502,-0.9505,-0.9516,-0.9521,-0.9468,-0.9468,-0.9468,-0.9468,0,-0.9543,-0.9545,-0.9552,-0.9545,-0.9544,-0.955,-0.9535,-0.9536,-0.9526,-0.9517,-0.9523,-0.9514,-0.9511,-0.9512,-0.9501,-0.9521,-0.9515,-0.9502,-0.9484,-0.9512,-0.9523,-0.9526,-0.9471,-0.947,-0.947,-0.9469,0,0,-0.9588,-0.9573,-0.9576,-0.9573,-0.9563,-0.9565,-0.9571,-0.9568,-0.957,-0.9565,-0.957,-0.9571,-0.9559,-0.9556,-0.9545,-0.9552,-0.9578,-0.9538,-0.9538,-0.9547,-0.96,-0.9611,-0.9616,-0.9569,-0.957,-0.957,-0.9601,0,-0.9616,-0.9625,-0.9611,-0.9624,-0.9627,-0.9608,-0.9613,-0.9608,-0.96,-0.9601,-0.9593,-0.9594,-0.9578,-0.9576,-0.9582,-0.9573,-0.9588,-0.9571,-0.9574,-0.9575,-0.9578,-0.9621,-0.9631,-0.9661,-0.9605,-0.9606,-0.9606,0,-0.9649,-0.9646,-0.966,-0.965,-0.9651,-0.9656,-0.9654,-0.9655,-0.9649,-0.9643,-0.9641,-0.9628,-0.9634,-0.9617,-0.9625,-0.9614,-0.9615,-0.9611,-0.9611,-0.9611,-0.9592,-0.9623,-0.967,-0.9675,-0.9612,-0.9611,-0.9611,0,-0.9682,-0.9682,-0.9691,-0.9689,-0.9677,-0.9682,-0.9677,-0.9671,-0.9671,-0.9669,-0.9669,-0.9667,-0.9667,-0.9666,-0.9654,-0.9642,-0.9665,-0.9646,-0.9661,-0.9661,-0.9666,-0.9666,-0.9715,-0.9666,-0.9666,-0.9666,-0.9665,0,-0.9715,-0.9724,-0.9706,-0.9711,-0.9721,-0.9706,-0.9716,-0.971,-0.9705,-0.9709,-0.9692,-0.9696,-0.9679,-0.9682,-0.9672,-0.9682,-0.9681,-0.9677,-0.9675,-0.9679,-0.968,-0.968,-0.9678,-0.9667,-0.9666,-0.9666,-0.9666,0,-0.9754,-0.9742,-0.975,-0.9739,-0.9737,-0.9745,-0.9736,-0.9741,-0.9733,-0.9738,-0.9739,-0.9726,-0.9728,-0.9716,-0.9716,-0.9709,-0.9724,-0.9718,-0.9727,-0.9725,-0.9741,-0.974,-0.9792,-0.9799,-0.9744,-0.9745,-0.9745,0,-0.9776,-0.9782,-0.9773,-0.9775,-0.9772,-0.9774,-0.9775,-0.976,-0.9761,-0.9756,-0.9762,-0.9763,-0.9764,-0.9769,-0.976,-0.976,-0.9754,-0.9772,-0.9754,-0.9759,-0.9756,-0.9756,-0.9757,-0.9776,-0.9777,-0.9778,-0.9778,0,-0.9816,-0.9811,-0.9812,-0.9811,-0.9812,-0.9811,-0.9809,-0.9811,-0.9796,-0.9798,-0.9801,-0.9801,-0.9802,-0.9804,-0.9803,-0.9799,-0.9787,-0.9784,-0.9788,-0.9793,-0.9798,-0.9797,-0.9738,-0.9783,-0.9782,-0.9782,-0.9782,-0.9782,-0.9848,-0.9854,-0.9849,-0.9851,-0.9848,-0.9847,-0.9851,-0.9844,-0.9846,-0.9846,-0.9837,-0.9842,-0.9838,-0.9835,-0.9833,-0.9837,-0.9828,-0.9833,-0.9835,-0.9836,-0.984,-0.9797,-0.9836,-0.9836,-0.9836,-0.9836,-0.9836,0,-0.9889,-0.9885,-0.9887,-0.9885,-0.9888,-0.9876,-0.9873,-0.9876,-0.9881,-0.9877,-0.9879,-0.9883,-0.9885,-0.9877,-0.9878,-0.9883,-0.9877,-0.9884,-0.9884,-0.9883,-0.9846,-0.9844,-0.9889,-0.9889,-0.9889,-0.9889,-0.9889,-0.9888,-0.9911,-0.9921,-0.9915,-0.9923,-0.9919,-0.9924,-0.9924,-0.9923,-0.9921,-0.9926,-0.9928,-0.9923,-0.9918,-0.9919,-0.9921,-0.9919,-0.992,-0.9929,-0.9925,-0.9891,-0.9886,-0.9881,-0.9878,-0.9929,-0.993,-0.9962,-0.9962,-0.9962]},{"header":{"parameterUnit":"m.s-1","parameterCategory":1,"la1":30.2991,"la2":30.254,"lo1":-89.0895,"lo2":-89.0444,"dy":0.0017,"dx":0.0017,"nx":28,"ny":28,"refTime":"2024-02-16T03:00:00:Z","depth":0,"parameterNumber":3,"parameterNumberName":"V-component_of_WINDS"},"data":[0,0,0,0,0,0,0,0,0,0,0,0,0,0,0,0,0,0,0,0,0,0,0,0,0,0,0,0,0,0,0,0,0,0,0,0,0,0,0,0,0,0,0,0,0,0,0,0,0,0,0,0,0,0,0,0,0,0,2.4158,2.4157,0,2.4104,2.4103,2.4103,2.4067,2.4067,2.4067,2.4067,2.4008,2.4007,2.4005,0,0,0,0,0,0,0,0,0,0,0,0,0,2.4228,2.4226,2.4158,2.4157,2.4157,2.4104,2.4103,2.4102,2.4067,2.4067,2.4067,2.4067,2.4009,2.4007,2.4005,0,0,0,0,0,0,0,0,0,0,0,0,0,2.4188,2.4226,2.4158,2.4133,2.413,2.4104,2.4103,2.4102,2.4068,2.4067,2.4067,2.4067,2.4009,2.4007,2.4005,2.3999,0,0,2.3999,2.3998,0,0,0,0,0,0,0,0,2.419,2.4185,2.4137,2.4135,2.4131,2.4092,2.4106,2.4067,2.4068,2.4091,2.4067,2.4066,2.4036,2.4032,2.4022,2.3996,2.3994,2.3999,2.3997,2.3997,2.3996,0,0,0,0,0,0,0,2.4193,2.4187,2.4136,2.4137,2.4133,2.4123,2.4117,2.4099,2.4066,2.4089,2.4086,2.4081,2.4034,2.4024,2.4021,2.3993,2.3999,2.3997,2.3996,2.3995,2.3959,2.3959,0,0,0,0,0,0,2.42,2.419,2.4138,2.4135,2.4161,2.4122,2.4115,2.4105,2.4066,2.406,2.4081,2.4079,2.4028,2.4023,2.4018,2.4009,2.3997,2.3995,2.3993,2.3958,2.3959,2.3959,0,0,0,0,0,0,2.4202,2.4196,2.414,2.4162,2.4154,2.4121,2.411,2.4104,2.4094,2.406,2.4054,2.4077,2.4028,2.4021,2.4004,2.4006,2.3994,2.3992,2.3958,2.3959,2.3959,2.399,0,0,0,0,0,0,2.4204,2.4197,2.4195,2.4162,2.4153,2.4128,2.411,2.4103,2.4091,2.4088,2.4055,2.4049,2.4027,2.4008,2.4002,2.4003,2.399,2.3958,2.3958,2.3959,2.3988,2.3991,2.3994,0,0,0,0,0,2.4206,2.4205,2.4195,2.4189,2.415,2.4128,2.4123,2.4099,2.4091,2.4089,2.4067,2.405,2.4007,2.4006,2.4,2.4,2.3958,2.3958,2.3959,2.3987,2.3991,2.3994,0,0,0,0,0,0,2.4237,2.42,2.4188,2.4176,2.4156,2.4123,2.4118,2.4103,2.4084,2.4082,2.4051,2.4044,2.403,2.4013,2.4013,2.3992,2.398,2.398,2.4004,2.4007,2.4009,2.4014,2.3989,0,0,0,0,0,2.4243,2.423,2.4197,2.4189,2.418,2.4151,2.4141,2.4124,2.4101,2.4092,2.4069,2.4047,2.4028,2.4016,2.3997,2.3986,2.3978,2.3983,2.3985,2.3988,2.3988,2.398,2.3982,2.3961,2.3961,2.3961,0,0,2.4254,2.4232,2.4225,2.4195,2.4177,2.4164,2.4144,2.413,2.4119,2.4089,2.4073,2.4055,2.4028,2.4014,2.4006,2.3999,2.3992,2.3988,2.3991,2.3989,2.3981,2.3983,2.3985,2.3961,2.3961,2.3961,0,0,2.4267,2.4249,2.4241,2.4224,2.4198,2.4179,2.4177,2.4146,2.4133,2.4116,2.4094,2.4079,2.4048,2.403,2.4017,2.4023,2.4007,2.4018,2.4031,2.4024,2.4026,2.4027,2.403,2.4031,2.4018,2.4018,2.4018,0,2.4284,2.4263,2.4239,2.4226,2.4214,2.4187,2.4179,2.4163,2.4131,2.4122,2.4115,2.4076,2.4056,2.4037,2.4039,2.4029,2.4025,2.4022,2.4028,2.4029,2.403,2.4032,2.4033,2.4019,2.4019,2.4019,2.4019,0,2.4285,2.4271,2.4268,2.424,2.4226,2.4216,2.4188,2.4178,2.4162,2.4143,2.4126,2.4101,2.4077,2.4071,2.4055,2.405,2.4046,2.4034,2.4021,2.4034,2.4036,2.4036,2.4021,2.4021,2.402,2.402,0,0,2.4317,2.4276,2.4275,2.4262,2.4231,2.4219,2.4207,2.4184,2.4176,2.4155,2.4143,2.4118,2.4106,2.4091,2.4073,2.4067,2.4074,2.4055,2.4054,2.406,2.4067,2.4077,2.4079,2.4063,2.4063,2.4063,2.407,0,2.4326,2.4304,2.4282,2.4268,2.4254,2.4229,2.4218,2.4198,2.418,2.4165,2.4144,2.4127,2.4113,2.4104,2.4097,2.4075,2.4075,2.4074,2.4052,2.4051,2.406,2.4079,2.409,2.4097,2.407,2.407,2.407,0,2.4334,2.4315,2.4301,2.4271,2.4265,2.4256,2.4233,2.422,2.4195,2.4183,2.4166,2.4147,2.4132,2.4121,2.41,2.4099,2.4089,2.4077,2.4076,2.4074,2.4062,2.4078,2.4099,2.4101,2.4071,2.4071,2.4071,0,2.4359,2.433,2.4318,2.4307,2.4273,2.4267,2.4252,2.4228,2.4216,2.4195,2.4187,2.4165,2.4153,2.4136,2.4111,2.4106,2.4093,2.408,2.4082,2.4082,2.4081,2.4081,2.4101,2.4073,2.4073,2.4073,2.4073,0,2.4372,2.4364,2.4329,2.4321,2.4311,2.4284,2.4275,2.4257,2.4236,2.4224,2.42,2.4189,2.4156,2.4141,2.4121,2.4107,2.4101,2.409,2.4085,2.4093,2.4094,2.4086,2.4085,2.4073,2.4073,2.4073,2.4073,0,2.4398,2.4375,2.4359,2.4328,2.432,2.4314,2.4287,2.4278,2.4259,2.4244,2.4239,2.4208,2.4189,2.4163,2.4135,2.4121,2.411,2.4101,2.4119,2.4116,2.412,2.412,2.4135,2.4136,2.4107,2.4108,2.4108,0,2.4408,2.4402,2.437,2.4361,2.4347,2.4332,2.432,2.4294,2.4282,2.4254,2.4249,2.4228,2.421,2.418,2.4155,2.4134,2.4125,2.4132,2.4122,2.413,2.4126,2.4127,2.4126,2.4135,2.4135,2.4135,2.4136,0,2.4429,2.4418,2.4402,2.4382,2.4368,2.4351,2.4332,2.4326,2.4295,2.4283,2.4264,2.425,2.4222,2.4202,2.4177,2.4161,2.4143,2.4139,2.4139,2.4146,2.4157,2.4152,2.4126,2.4139,2.4139,2.4138,2.4138,2.4138,2.4448,2.4441,2.4418,2.4401,2.4384,2.4368,2.4358,2.4338,2.4322,2.4298,2.4283,2.4265,2.424,2.4206,2.419,2.4175,2.4167,2.4166,2.4166,2.4167,2.417,2.4159,2.417,2.417,2.417,2.4169,2.4169,0,2.4467,2.4451,2.4436,2.4412,2.4398,2.4384,2.4362,2.4352,2.4336,2.4316,2.4299,2.4277,2.4257,2.4231,2.4209,2.4201,2.4193,2.4197,2.4197,2.4194,2.4177,2.418,2.4204,2.4204,2.4204,2.4204,2.4204,2.4204,2.4476,2.4464,2.445,2.4429,2.4412,2.4395,2.4385,2.4369,2.4352,2.4329,2.4313,2.4296,2.4273,2.4249,2.423,2.4223,2.4216,2.4223,2.4213,2.4198,2.4195,2.4192,2.4194,2.4221,2.4221,2.4231,2.4231,2.4231]}]]